カタログに戻る

DELTA 1 DEB

運用中LEO
NORAD 7202·DEBRIS·🇺🇸 United States

打ち上げ Nov 6, 1973 から Vandenberg Space Force Base

Loading…

次のパス (今後24時間)

TLE

最新Source: Space-Track

元期: Sep 13, 2026, 22:24 UTC

1  7202U 73086FL  26256.93367359  .00000375  00000-0  80281-3 0  9998
2  7202 102.0441 248.7954 0288079 246.8502 139.5241 13.24852434533298

AllMySatでDELTA 1 DEBをリアルタイム追跡

Download on the App Store